Toronto, Ontario

10:18 PM EDT on August 28, 2016 (GMT -0400)
Toronto-City Centre

Weather History for CYTZ - October, 2011

Change the Weather History Date:

Thursday, October 27, 2011

  Actual Average Record
Temperature  
Mean Temperature 39 °F -  
Max Temperature 41 °F 46 °F 71 °F (2000)
Min Temperature 37 °F 36 °F 35 °F (1997)
Degree Days  
Heating Degree Days 26    
Moisture  
Dew Point 31 °F    
Average Humidity 69    
Maximum Humidity 87    
Minimum Humidity 46    
Precipitation  
Precipitation 0.00 in 0.09 in - ()
Sea Level Pressure  
Sea Level Pressure 29.93 in    
Wind  
Wind Speed 8 mph ()    
Max Wind Speed 16 mph    
Max Gust Speed 20 mph    
Visibility 9.1 miles    
Events Rain    
Averages and records for this station are not official NWS values.
T = Trace of Precipitation, MM = Missing Value Source: Averaged Metar Reports

Daily Weather History Graph

Daily Weather History Graph

Search for Another Location

Airport or City:

Trip Planner

Search our weather history database for the weather conditions in past years. The results will help you decide how hot, cold, wet, or windy it might be!

Date:

Astronomy

Oct. 27, 2011 Rise Set
Actual Time 7:46 AM EDT 6:15 PM EDT
Civil Twilight 7:16 AM EDT 6:45 PM EDT
Nautical Twilight 6:43 AM EDT 7:18 PM EDT
Astronomical Twilight 6:10 AM EDT 7:52 PM EDT
Moon 8:51 AM EDT (10/27) 6:39 PM EDT (10/27)
Length of Visible Light 11h 28m
Length of Day
10h 29m
New Moon, 1% of the Moon is Illuminated
Oct 27
New Moon
Nov 2
First Quarter
Nov 10
Full
Nov 18
Last Quarter
Nov 25
New

Hourly Weather History & Observations

Time (EDT) Temp. Windchill Dew Point Humidity Pressure Visibility Wind Dir Wind Speed Gust Speed Precip Events Conditions
12:00 AM 41.0 °F 35.2 °F 35.6 °F 81% 29.89 in 9.0 mi NNE 9.2 mph 19.6 mph N/A Rain Light Rain
1:00 AM 39.2 °F 32.5 °F 35.6 °F 87% 29.89 in 9.0 mi NE 10.4 mph - N/A Rain Light Rain
1:49 AM 39.2 °F 32.0 °F 35.6 °F 87% 29.88 in 9.0 mi NE 11.5 mph - N/A   Overcast
2:00 AM 39 °F - 35 °F 78% 29.88 in 10 mi NE 10.4 mph - -   Clear
2:06 AM 39.2 °F 33.0 °F 33.8 °F 81% 29.88 in 9.0 mi NE 9.2 mph - N/A Rain Light Rain
2:24 AM 39.2 °F 33.0 °F 33.8 °F 81% 29.88 in 9.0 mi NE 9.2 mph - N/A   Overcast
3:00 AM 39.2 °F 33.0 °F 33.8 °F 81% 29.88 in 9.0 mi NE 9.2 mph - N/A   Overcast
4:00 AM 41.0 °F 37.1 °F 33.8 °F 76% 29.88 in 9.0 mi NE 5.8 mph - N/A   Overcast
5:00 AM 41.0 °F 36.4 °F 32.0 °F 70% 29.88 in 9.0 mi NNE 6.9 mph - N/A   Overcast
6:00 AM 41.0 °F 35.8 °F 32.0 °F 70% 29.88 in 9.0 mi NNE 8.1 mph - N/A   Overcast
7:00 AM 39.2 °F 33.6 °F 30.2 °F 70% 29.88 in 9.0 mi NE 8.1 mph 18.4 mph N/A   Overcast
8:00 AM 39 °F - 30 °F 60% 29.90 in 10 mi NNE 12.7 mph - -   Overcast
8:00 AM 39.2 °F 31.6 °F 30.2 °F 70% 29.90 in 9.0 mi NE 12.7 mph 19.6 mph N/A   Overcast
9:00 AM 39.2 °F 31.6 °F 28.4 °F 65% 29.90 in 9.0 mi NNE 12.7 mph 18.4 mph N/A   Overcast
10:00 AM 39.2 °F 30.5 °F 28.4 °F 65% 29.91 in 9.0 mi NE 16.1 mph - N/A   Scattered Clouds
12:00 PM 41.0 °F 34.7 °F 30.2 °F 65% 29.91 in 9.0 mi NNE 10.4 mph 18.4 mph N/A   Scattered Clouds
1:00 PM 41.0 °F 34.3 °F 28.4 °F 61% 29.89 in 9.0 mi NNE 11.5 mph - N/A   Scattered Clouds
2:00 PM 41 °F - 27 °F 46% 29.89 in 10 mi NNE 5.8 mph - -  
2:00 PM 41.0 °F 35.8 °F 26.6 °F 57% 29.89 in 9.0 mi NNE 8.1 mph - N/A   Scattered Clouds
4:00 PM 41.0 °F 37.1 °F 26.6 °F 57% 29.94 in 9.0 mi NNW 5.8 mph - N/A   Overcast
5:00 PM 41.0 °F 35.8 °F 26.6 °F 57% 29.95 in 9.0 mi North 8.1 mph - N/A   Mostly Cloudy
6:00 PM 41.0 °F 35.2 °F 28.4 °F 61% 29.98 in 9.0 mi NW 9.2 mph - N/A   Partly Cloudy
8:00 PM 39 °F - 29 °F 56% 30.04 in 10 mi WNW 4.6 mph - -  
8:00 PM 39.2 °F 35.9 °F 28.4 °F 65% 30.04 in 9.0 mi WNW 4.6 mph - N/A   Partly Cloudy
9:00 PM 37.4 °F 32.8 °F 28.4 °F 70% 30.07 in 9.0 mi West 5.8 mph - N/A   Clear
10:00 PM 37.4 °F 32.8 °F 30.2 °F 75% 30.10 in 9.0 mi West 5.8 mph - N/A   Clear
11:00 PM 37.4 °F 32.8 °F 30.2 °F 75% 30.12 in 9.0 mi WNW 5.8 mph - N/A   Clear